[[{"header":{"parameterUnit":"m.s-1","parameterCategory":1,"la1":30.2991,"la2":30.254,"lo1":-89.0895,"lo2":-89.0444,"dy":0.0017,"dx":0.0017,"nx":28,"ny":28,"refTime":"2025-09-16T09:00:00:Z","depth":0,"parameterNumber":2,"parameterNumberName":"U-component_of_WINDS"},"data":[0,0,0,0,0,0,0,0,0,0,0,0,0,0,0,0,0,0,0,0,0,0,0,0,0,0,0,0,0,0,0,0,0,0,0,0,0,0,0,0,0,0,0,0,0,0,0,0,0,0,0,0,0,0,0,0,0,0,0.6558,0.6558,0,0.6552,0.6552,0.6551,0.6523,0.6522,0.6521,0.6521,0.6514,0.6515,0.6515,0,0,0,0,0,0,0,0,0,0,0,0,0,0.6544,0.6544,0.6558,0.6558,0.6558,0.6552,0.6552,0.6551,0.6523,0.6522,0.6521,0.652,0.6514,0.6515,0.6515,0,0,0,0,0,0,0,0,0,0,0,0,0,0.6545,0.6544,0.6558,0.6543,0.6541,0.6552,0.6552,0.6551,0.6523,0.6522,0.6521,0.652,0.6514,0.6514,0.6515,0.654,0,0,0.6517,0.6518,0,0,0,0,0,0,0,0,0.6545,0.6545,0.6545,0.6544,0.6542,0.6537,0.6544,0.6547,0.6523,0.653,0.6521,0.652,0.6523,0.6522,0.6523,0.6539,0.6539,0.6517,0.6518,0.6518,0.6518,0,0,0,0,0,0,0,0.6545,0.6545,0.6555,0.6545,0.6543,0.6536,0.6535,0.6545,0.6532,0.6529,0.6527,0.6527,0.6522,0.6523,0.6523,0.6539,0.6517,0.6518,0.6518,0.6519,0.6572,0.6573,0,0,0,0,0,0,0.6547,0.6546,0.6555,0.6555,0.6541,0.6537,0.6536,0.654,0.6532,0.653,0.6528,0.6526,0.6522,0.6522,0.6523,0.6549,0.6518,0.6519,0.6519,0.6571,0.6573,0.6574,0,0,0,0,0,0,0.6547,0.6548,0.6556,0.655,0.655,0.6538,0.6543,0.654,0.6541,0.6531,0.6528,0.6531,0.6521,0.6522,0.6535,0.6548,0.6519,0.652,0.657,0.6572,0.6573,0.6603,0,0,0,0,0,0,0.6546,0.6548,0.6558,0.655,0.6551,0.6569,0.6544,0.6541,0.6543,0.654,0.6533,0.6531,0.6521,0.6534,0.6536,0.6549,0.652,0.6569,0.6571,0.6573,0.6601,0.6605,0.6609,0,0,0,0,0,0.6546,0.6567,0.6558,0.656,0.6562,0.6569,0.657,0.6557,0.6544,0.6553,0.6546,0.6532,0.6547,0.6536,0.6537,0.6551,0.6568,0.657,0.6572,0.6599,0.6604,0.6609,0,0,0,0,0,0,0.6576,0.6565,0.6556,0.6575,0.6573,0.6565,0.6576,0.6564,0.6566,0.6563,0.6547,0.6546,0.6561,0.6558,0.6545,0.6573,0.6555,0.6558,0.6575,0.658,0.6584,0.6584,0.6521,0,0,0,0,0,0.6585,0.6592,0.6582,0.66,0.6599,0.6588,0.6591,0.6581,0.6578,0.6578,0.6572,0.657,0.6574,0.6577,0.658,0.6601,0.6598,0.6611,0.6615,0.6619,0.662,0.6629,0.6634,0.6581,0.6581,0.6581,0,0,0.6603,0.6598,0.6604,0.6606,0.6603,0.661,0.6587,0.6596,0.6601,0.6579,0.659,0.6586,0.6583,0.6599,0.6606,0.6597,0.6635,0.6621,0.6624,0.6624,0.6632,0.6637,0.6641,0.6583,0.6582,0.6582,0,0,0.6639,0.6637,0.665,0.6648,0.6645,0.6637,0.664,0.6633,0.6629,0.6641,0.6624,0.663,0.6638,0.6636,0.6636,0.667,0.6657,0.6672,0.6694,0.6702,0.6707,0.671,0.6721,0.6725,0.6674,0.6675,0.6675,0,0.6662,0.6672,0.6659,0.6668,0.6669,0.665,0.6662,0.6661,0.6659,0.666,0.665,0.6658,0.6655,0.6669,0.6678,0.6679,0.6681,0.6672,0.6707,0.6711,0.6714,0.6723,0.6728,0.6676,0.6676,0.6676,0.6676,0,0.6699,0.6707,0.6718,0.6716,0.6718,0.6729,0.6717,0.6721,0.6711,0.6704,0.6715,0.6711,0.6712,0.6715,0.6706,0.6728,0.6722,0.671,0.6691,0.6721,0.6729,0.6733,0.6679,0.6678,0.6678,0.6677,0,0,0.6754,0.6744,0.6748,0.6746,0.6741,0.6746,0.6756,0.6757,0.6759,0.6759,0.6766,0.6773,0.6761,0.6761,0.6752,0.6759,0.6785,0.6746,0.6745,0.6752,0.6807,0.6815,0.6819,0.6777,0.6777,0.6778,0.6807,0,0.6787,0.6803,0.6791,0.6809,0.6814,0.6796,0.6804,0.6801,0.6795,0.6798,0.6792,0.6796,0.6781,0.6781,0.6788,0.678,0.6795,0.6778,0.6782,0.6782,0.6781,0.6824,0.6833,0.686,0.681,0.6811,0.6811,0,0.6827,0.6827,0.6846,0.6838,0.6839,0.6847,0.6847,0.6851,0.6847,0.6842,0.6841,0.683,0.6838,0.6821,0.6831,0.682,0.6821,0.6817,0.6818,0.6816,0.6797,0.6822,0.6869,0.6872,0.6817,0.6816,0.6816,0,0.6862,0.6867,0.6878,0.6878,0.6869,0.6875,0.6872,0.6867,0.6868,0.6868,0.6868,0.6869,0.6869,0.687,0.6858,0.6847,0.687,0.6852,0.6864,0.6864,0.6868,0.6868,0.6914,0.6872,0.6872,0.6872,0.6872,0,0.6899,0.691,0.6894,0.69,0.6912,0.6899,0.6911,0.6906,0.6901,0.6906,0.6891,0.6896,0.6881,0.6884,0.6875,0.6884,0.6885,0.688,0.6877,0.6881,0.6881,0.6879,0.6877,0.6873,0.6873,0.6873,0.6873,0,0.6939,0.6929,0.6939,0.6931,0.6929,0.6938,0.693,0.6935,0.6928,0.6934,0.6935,0.6923,0.6926,0.6915,0.6916,0.691,0.6923,0.6918,0.6924,0.6922,0.6934,0.6932,0.6979,0.6984,0.6941,0.6941,0.6942,0,0.6962,0.6971,0.6962,0.6964,0.6962,0.6966,0.6966,0.6953,0.6955,0.695,0.6956,0.6958,0.6958,0.6963,0.6955,0.6955,0.6949,0.6965,0.6949,0.6951,0.6947,0.6945,0.6945,0.6968,0.6969,0.6969,0.6969,0,0.7004,0.6998,0.7,0.7,0.7001,0.7,0.6999,0.7001,0.6987,0.6989,0.6991,0.6992,0.6992,0.6994,0.6992,0.6988,0.6976,0.6975,0.6977,0.698,0.6982,0.6979,0.6931,0.6973,0.6973,0.6973,0.6973,0.6972,0.7035,0.7041,0.7036,0.7038,0.7035,0.7033,0.7037,0.7031,0.7032,0.7032,0.7024,0.7028,0.7023,0.7019,0.7017,0.7019,0.7011,0.7016,0.7016,0.7017,0.7018,0.6983,0.7019,0.7019,0.7019,0.7019,0.7019,0,0.7074,0.707,0.7072,0.7069,0.7071,0.706,0.7057,0.7059,0.7062,0.7059,0.7059,0.7061,0.7062,0.7054,0.7054,0.7057,0.7051,0.7057,0.7056,0.7055,0.7026,0.7023,0.7062,0.7062,0.7062,0.7062,0.7061,0.7061,0.7094,0.7103,0.7097,0.7103,0.7099,0.7102,0.7101,0.7099,0.7096,0.7099,0.71,0.7095,0.7089,0.7088,0.7088,0.7085,0.7085,0.7093,0.7088,0.7061,0.7057,0.7053,0.705,0.7093,0.7093,0.7116,0.7116,0.7116]},{"header":{"parameterUnit":"m.s-1","parameterCategory":1,"la1":30.2991,"la2":30.254,"lo1":-89.0895,"lo2":-89.0444,"dy":0.0017,"dx":0.0017,"nx":28,"ny":28,"refTime":"2025-09-16T09:00:00:Z","depth":0,"parameterNumber":3,"parameterNumberName":"V-component_of_WINDS"},"data":[0,0,0,0,0,0,0,0,0,0,0,0,0,0,0,0,0,0,0,0,0,0,0,0,0,0,0,0,0,0,0,0,0,0,0,0,0,0,0,0,0,0,0,0,0,0,0,0,0,0,0,0,0,0,0,0,0,0,1.8728,1.8728,0,1.8715,1.8714,1.8714,1.8663,1.8662,1.8661,1.866,1.8646,1.8647,1.8647,0,0,0,0,0,0,0,0,0,0,0,0,0,1.8709,1.871,1.8728,1.8728,1.8728,1.8715,1.8714,1.8714,1.8663,1.8662,1.8661,1.8659,1.8646,1.8646,1.8647,0,0,0,0,0,0,0,0,0,0,0,0,0,1.8709,1.871,1.8728,1.8701,1.8698,1.8715,1.8714,1.8714,1.8664,1.8662,1.866,1.8659,1.8645,1.8646,1.8647,1.8689,0,0,1.8651,1.8651,0,0,0,0,0,0,0,0,1.8709,1.871,1.8705,1.8703,1.87,1.8689,1.8703,1.8706,1.8664,1.8677,1.866,1.8658,1.8662,1.8661,1.8662,1.8688,1.8688,1.8651,1.8651,1.8652,1.8652,0,0,0,0,0,0,0,1.8709,1.871,1.8723,1.8705,1.8702,1.8689,1.8687,1.8703,1.8679,1.8676,1.8672,1.8671,1.866,1.8662,1.8662,1.8688,1.8651,1.8652,1.8652,1.8653,1.8745,1.8747,0,0,0,0,0,0,1.8713,1.871,1.8723,1.8722,1.87,1.8691,1.8689,1.8694,1.8679,1.8675,1.8673,1.8669,1.8661,1.8661,1.8661,1.8707,1.8652,1.8653,1.8654,1.8743,1.8745,1.8747,0,0,0,0,0,0,1.8713,1.8715,1.8724,1.8715,1.8715,1.8693,1.87,1.8695,1.8696,1.8677,1.8672,1.8679,1.8659,1.866,1.8682,1.8706,1.8653,1.8654,1.8741,1.8744,1.8746,1.8801,0,0,0,0,0,0,1.8712,1.8715,1.8731,1.8716,1.8716,1.8745,1.8701,1.8696,1.8698,1.8693,1.8681,1.8677,1.8658,1.8681,1.8683,1.8706,1.8655,1.8739,1.8742,1.8745,1.8797,1.8805,1.8812,0,0,0,0,0,1.8712,1.8747,1.8732,1.8734,1.8735,1.8747,1.8747,1.8724,1.8701,1.8716,1.8703,1.8678,1.8703,1.8683,1.8686,1.871,1.8737,1.8741,1.8745,1.8793,1.8803,1.8812,0,0,0,0,0,0,1.8765,1.8745,1.8727,1.8759,1.8755,1.8738,1.8757,1.8736,1.8738,1.8733,1.8704,1.8702,1.8728,1.8721,1.87,1.8748,1.8716,1.8721,1.8752,1.8761,1.8769,1.8769,1.8656,0,0,0,0,0,1.8781,1.8792,1.8773,1.8803,1.8802,1.878,1.8784,1.8766,1.8761,1.8759,1.8748,1.8744,1.875,1.8756,1.8761,1.8796,1.8791,1.8813,1.8821,1.8827,1.8831,1.8847,1.8856,1.876,1.876,1.876,0,0,1.8813,1.8803,1.8812,1.8813,1.8808,1.882,1.8779,1.8793,1.8801,1.8761,1.8781,1.8773,1.8766,1.8795,1.8807,1.879,1.8857,1.8833,1.8838,1.8838,1.8853,1.8862,1.887,1.8763,1.8763,1.8762,0,0,1.8877,1.8871,1.8894,1.8889,1.8882,1.8867,1.8873,1.8859,1.8852,1.8871,1.8841,1.8851,1.8863,1.8859,1.8859,1.892,1.8896,1.8923,1.8963,1.8979,1.8986,1.8993,1.9013,1.9021,1.8927,1.8927,1.8927,0,1.8917,1.8934,1.8909,1.8924,1.8925,1.889,1.8912,1.8909,1.8904,1.8905,1.8887,1.8901,1.8894,1.892,1.8935,1.8936,1.8941,1.8924,1.8987,1.8993,1.8999,1.9018,1.9026,1.893,1.893,1.893,1.8929,0,1.8983,1.8995,1.9014,1.9009,1.9013,1.9032,1.9009,1.9016,1.8998,1.8985,1.9004,1.8995,1.8997,1.9002,1.8985,1.9025,1.9015,1.8992,1.8959,1.9012,1.9029,1.9036,1.8935,1.8934,1.8933,1.8932,0,0,1.908,1.906,1.9068,1.9064,1.9053,1.9062,1.9079,1.9081,1.9086,1.9084,1.9096,1.9108,1.9086,1.9086,1.9068,1.9082,1.9129,1.9058,1.9057,1.907,1.9171,1.9187,1.9196,1.9114,1.9115,1.9117,1.9171,0,1.9139,1.9167,1.9144,1.9176,1.9186,1.9152,1.9167,1.9161,1.915,1.9156,1.9143,1.915,1.9123,1.9122,1.9135,1.9121,1.9149,1.9117,1.9125,1.9125,1.9126,1.9205,1.9222,1.9274,1.9178,1.9179,1.918,0,1.9212,1.9212,1.9245,1.923,1.9233,1.9247,1.9246,1.9253,1.9245,1.9235,1.9235,1.9213,1.9228,1.9196,1.9216,1.9194,1.9196,1.919,1.9191,1.919,1.9155,1.9204,1.929,1.9298,1.919,1.919,1.9189,0,1.9277,1.9285,1.9305,1.9304,1.9288,1.9298,1.9292,1.9283,1.9285,1.9284,1.9285,1.9286,1.9286,1.9288,1.9266,1.9245,1.9288,1.9255,1.9279,1.928,1.9288,1.9288,1.9374,1.9293,1.9293,1.9292,1.9292,0,1.9344,1.9365,1.9334,1.9346,1.9368,1.9342,1.9365,1.9355,1.9347,1.9356,1.9328,1.9337,1.9309,1.9315,1.9299,1.9316,1.9317,1.9309,1.9304,1.9311,1.9311,1.931,1.9306,1.9294,1.9294,1.9294,1.9293,0,1.942,1.9401,1.942,1.9403,1.9399,1.9416,1.9401,1.9411,1.9397,1.9409,1.9411,1.9389,1.9394,1.9373,1.9376,1.9365,1.939,1.938,1.9393,1.9389,1.9414,1.9411,1.9502,1.9511,1.9425,1.9426,1.9427,0,1.9464,1.9479,1.9463,1.9467,1.9462,1.9469,1.9471,1.9446,1.9448,1.9441,1.9452,1.9455,1.9456,1.9466,1.9451,1.9452,1.944,1.9472,1.944,1.9446,1.9439,1.9438,1.9438,1.9478,1.9479,1.948,1.9481,0,1.9543,1.9532,1.9535,1.9535,1.9537,1.9536,1.9533,1.9538,1.9511,1.9515,1.952,1.9521,1.9523,1.9526,1.9524,1.9517,1.9494,1.9491,1.9496,1.9503,1.9508,1.9504,1.9409,1.9489,1.9488,1.9487,1.9487,1.9487,1.9603,1.9614,1.9604,1.9608,1.9603,1.96,1.9608,1.9595,1.9599,1.9598,1.9584,1.9591,1.9582,1.9577,1.9572,1.9578,1.9563,1.9571,1.9573,1.9575,1.9578,1.9509,1.9577,1.9577,1.9577,1.9577,1.9576,0,1.9678,1.967,1.9675,1.967,1.9673,1.9652,1.9647,1.9651,1.9658,1.9652,1.9653,1.9658,1.9661,1.9645,1.9645,1.9652,1.9642,1.9653,1.9652,1.965,1.9593,1.9587,1.9662,1.9662,1.9662,1.9662,1.9662,1.9662,1.9718,1.9735,1.9723,1.9737,1.9729,1.9736,1.9734,1.9731,1.9726,1.9733,1.9735,1.9725,1.9714,1.9713,1.9714,1.971,1.971,1.9725,1.9717,1.9663,1.9654,1.9646,1.9641,1.9726,1.9726,1.9773,1.9774,1.9774]}]]